Home > Weather > Bregenz > Past weeks

Flag for Austria Past Weather in Bregenz, Vorarlberg, Austria — Yesterday and Last 2 Weeks

Now
73 °F

Mild.


Feels Like: 75 °F
Forecast: 60 / 69 °F
Wind: 3 mph from South

Location: Bregenz

Current Time: Jun 25, 2016 at 10:42:42 AM

Latest Report: Jun 25, 2016 at 10:00 AM


Visibility: N/A

Pressure: 29.93 "Hg

Humidity: 72%

Dew Point: 63 °F

Location of BregenzLocation

Past Weather in Bregenz — Graph

°F

Bregenz Temperature Yesterday

Maximum temperature yesterday: 88 °F (at 7:00 PM)
Minimum temperature yesterday: 66 °F (at 5:00 AM)
Average temperature yesterday: 76 °F

High & Low Weather Summary for the Past Weeks

 TemperatureHumidityPressure
High88 °F (Jun 24, 7:00 PM)98% (Jun 14, 5:00 AM)30.27 "Hg (Jun 14, 5:00 AM)
Low47 °F (Jun 17, 8:00 AM)31% (Jun 10, 6:00 PM)29.58 "Hg (Jun 16, 6:00 AM)
Average62 °F79%29.94 "Hg
* Reported Jun 10 9:00 AM — Jun 25 9:00 AM, Bregenz, Weather by CustomWeather, © 2016

Note: Actual official high and low records may vary slightly from our data, if they occured in-between our weather recording intervals... More about our weather records

Advertising

Bregenz Weather History for the Previous 24 Hours

Scroll right to see more
 ConditionsComfort  
Time TempWeatherWind HumidityBarometerVisibility
9:00 AM
Sat, Jun 25
72 °FMild.3 mph71%29.93 "HgN/A
8:00 AM69 °FScattered clouds.1 mph80%29.94 "Hg9 mi
7:00 AM64 °FPartly sunny.2 mph94%29.97 "Hg9 mi
6:00 AM62 °FMild.1 mph97%29.97 "HgN/A
5:00 AM63 °FMild.No wind96%29.95 "HgN/A
4:00 AM63 °FMild.2 mph94%29.93 "HgN/A
3:00 AM64 °FMild.No wind90%29.94 "HgN/A
2:00 AM65 °FMild.1 mph94%29.98 "HgN/A
1:00 AM66 °FMild.1 mph90%30.00 "HgN/A
12:00 AM67 °FMild.2 mph89%29.99 "HgN/A
11:00 PM
Fri, Jun 24
70 °FMild.3 mph75%29.97 "HgN/A
10:00 PM73 °FMild.10 mph66%29.90 "HgN/A
9:00 PM69 °FMild.8 mph83%29.95 "HgN/A
8:00 PM70 °FMild.5 mph78%29.99 "HgN/A
7:00 PM88 °FHot.1 mph42%29.87 "HgN/A
6:00 PM87 °FWarm.2 mph45%29.89 "HgN/A
5:00 PM86 °FWarm.3 mph48%29.91 "HgN/A
4:00 PM85 °FWarm.2 mph46%29.93 "HgN/A
3:00 PM84 °FWarm.2 mph44%29.96 "HgN/A
2:00 PM83 °FPassing clouds.2 mph54%29.99 "Hg9 mi
1:00 PM82 °FWarm.2 mph55%30.01 "HgN/A
12:00 PM83 °FWarm.2 mph51%30.02 "HgN/A
11:00 AM82 °FPassing clouds.1 mph52%30.02 "Hg11 mi
10:00 AM81 °FWarm.2 mph51%30.04 "HgN/A
Weather by CustomWeather, © 2016

See weather overviewHow to use our weather pages